This is the latest recevied weather packets stored in our database for station/object PP5CFL-2. If no packets are shown the sender has not sent any weather packets the latest 10 day(s).
| Time | Temp. | Humidity | Pressure | Rain* | Wind** | Luminosity | Snow |
|---|---|---|---|---|---|---|---|
| 1777429518 | 16.67° C | 10% | - | - | - | - | - |
| 1777429218 | 16.67° C | 10% | - | - | - | - | - |
| 1777428918 | 16.67° C | 10% | - | - | - | - | - |
| 1777428618 | 16.67° C | 10% | - | - | - | - | - |
| 1777428318 | 16.67° C | 10% | - | - | - | - | - |
| 1777428018 | 16.67° C | 99% | 1018.7 hPa | - | - | - | - |
| 1777427718 | 16.67° C | 97% | 1018.7 hPa | - | - | - | - |
| 1777427418 | 16.67° C | 96% | 1018.8 hPa | - | - | - | - |
| 1777427118 | 16.11° C | 95% | 1018.9 hPa | - | - | - | - |
| 1777426818 | 16.67° C | 98% | 1018.9 hPa | - | - | - | - |
| 1777426518 | 16.11° C | 95% | 1019 hPa | - | - | - | - |
| 1777426218 | 16.67° C | 96% | 1018.9 hPa | - | - | - | - |
| 1777425918 | 16.11° C | 97% | 1018.9 hPa | - | - | - | - |
| 1777425618 | 16.11° C | 96% | 1018.8 hPa | - | - | - | - |
| 1777425318 | 16.67° C | 95% | 1019.2 hPa | - | - | - | - |
| 1777425018 | 16.11° C | 97% | 1019.2 hPa | - | - | - | - |
| 1777424718 | 16.11° C | 97% | 1019.3 hPa | - | - | - | - |
| 1777424418 | 16.11° C | 97% | 1019.3 hPa | - | - | - | - |
| 1777424118 | 16.67° C | 97% | 1019.3 hPa | - | - | - | - |
| 1777423818 | 16.67° C | 96% | 1019.2 hPa | - | - | - | - |
| 1777423518 | 16.67° C | 95% | 1019.1 hPa | - | - | - | - |
| 1777423218 | 16.67° C | 96% | 1019 hPa | - | - | - | - |
| 1777422918 | 16.67° C | 96% | 1019 hPa | - | - | - | - |
| 1777422618 | 16.67° C | 95% | 1019.1 hPa | - | - | - | - |
| 1777422318 | 16.67° C | 95% | 1019.2 hPa | - | - | - | - |
* Rain since midnight (hover to see other rain measurements)
** Current wind speed in m/s (hover to see current wind gust speed)